This demonstration page uses our WeatherBlox Daily Observations layout. Learn more.

Left ArrowRight Arrow

Hourly Observations for June 24, 2022

Temp ( °F °C ) Dew Point ( °F °C ) Humidity (%) Winds ( mph kmh ) Pressure ( in mb ) Visibility ( mi km ) Precip ( " mm )
12:56 am 00:56 Clear 70 21.1 65 18.3 84 84 SSE 5 7 29.82 1010 10 16 0.00 0.00
1:56 am 01:56 Clear 70 21.1 65 18.3 84 84 S 9 15 29.80 1009 10 16 0.00 0.00
2:56 am 02:56 Clear 70 21.1 65 18.3 84 84 S 12 19 29.79 1009 10 16 0.00 0.00
3:56 am 03:56 Clear 74 23.3 66 18.9 76 76 S 22 35 29.77 1008 10 16 0.00 0.00
4:56 am 04:56 Partly Cloudy 71 21.7 66 18.9 84 84 S 10 17 29.78 1008 10 16 0.00 0.00
5:56 am 05:56 Clear 72 22.2 66 18.9 82 82 S 12 19 29.78 1009 10 16 0.00 0.00
6:56 am 06:56 Sunny 75 23.9 64 17.8 69 69 SSE 17 28 29.80 1009 10 16 0.00 0.00
7:56 am 07:56 Sunny 74 23.3 64 17.8 71 71 SE 20 31 29.80 1009 10 16 0.00 0.00
8:56 am 08:56 Sunny 77 25 64 17.8 64 64 SSE 23 37 29.80 1009 10 16 0.00 0.00
9:56 am 09:56 Sunny 78 25.6 66 18.9 67 67 SSE 23 37 29.80 1009 10 16 0.00 0.00
10:56 am 10:56 Sunny 81 27.2 68 20 65 65 SSE 22 35 29.81 1009 10 16 0.00 0.00
11:39 am 11:39 Mostly Cloudy 82 28 70 21 66 66 SE 21 33 29.73 1007 10 16 0.00 0.00
11:56 am 11:56 Mostly Cloudy 83 28.3 70 21.1 65 65 SSE 18 30 29.80 1009 10 16 0.00 0.00
12:09 pm 12:09 Partly Cloudy 82 28 70 21 66 66 SSE 17 28 29.73 1007 10 16 0.00 0.00
12:56 pm 12:56 Partly Cloudy 84 28.9 70 21.1 63 63 SE 13 20 29.79 1009 10 16 0.00 0.00
1:56 pm 13:56 Mostly Cloudy 84 28.9 69 20.6 61 61 SSE 10 17 29.78 1009 10 16 0.00 0.00
2:56 pm 14:56 Partly Cloudy 85 29.4 70 21.1 61 61 ESE 13 20 29.78 1008 10 16 0.00 0.00
3:56 pm 15:56 Partly Cloudy 86 30 69 20.6 57 57 ESE 12 19 29.75 1008 10 16 0.00 0.00
4:56 pm 16:56 Mostly Sunny 86 30 71 21.7 61 61 E 13 20 29.74 1007 10 16 0.00 0.00
5:56 pm 17:56 Mostly Sunny 85 29.4 70 21.1 61 61 ESE 13 20 29.72 1007 10 16 0.00 0.00
6:31 pm 18:31 Mostly Sunny 84 29 72 22 66 66 ESE 10 17 29.63 1003 9 14 0.00 0.00
6:56 pm 18:56 Mostly Sunny 85 29.4 72 22.2 65 65 ESE 12 19 29.70 1006 10 16 0.00 0.00
7:56 pm 19:56 Sunny 85 29.4 73 22.8 68 68 E 13 20 29.71 1006 10 16 0.00 0.00
8:56 pm 20:56 Sunny 82 27.8 73 22.8 74 74 E 10 17 29.69 1005 10 16 0.00 0.00
9:56 pm 21:56 Mostly Cloudy 80 26.7 74 23.3 82 82 NNE 7 11 29.73 1007 10 16 0.00 0.00
10:56 pm 22:56 Cloudy 80 26.7 74 23.3 82 82 NNE 7 11 29.73 1007 10 16 0.00 0.00
11:56 pm 23:56 Cloudy with Nearby Thunderstorms 80 26.7 74 23.3 82 82 NNW 10 17 29.77 1008 10 16 0.00 0.00

Powered by AerisWeather